SCP
0 0 0 0 0 0 0 0 0 0 0 0 0 0 0 0 -0 0 0 0 0 0 0 0 0 0 0 0 0 0 0 0 0 0 0 0 0 0 0 0 0 0 0 0 0
0 0 0 0 0 0 0 0 0 0 0 0 0 0 0 0 0 0 0 0 0 0 0 0 0 0 0 0 0 0 0 0 0 0 0 0 0 0 0 0 0 0 0 0 0
0 0 0 0 0 0 0 0 0 0 0 0 0 0 0 0 0 0 0 0 0 0 0 0 0 0 0 0 0 0 0 0 0 0 0 0 0 0 0 0 0 0 0 0 0
0 0 0 0 0 0 0 0 0 0 0 0 0 0 0 0 0 0 0 0 0 0 0 0 0 0 0 0 0 0 0 0 0 0 0 0 0 0 0 0 0 0 0 0 0
0 0 0 0 0 0 0 0 0 0 0 0 0 0 0 0 0 0 0 0 0 0 0 0 0 0 0 0 0 0 0 0 0 0 0 0 0 0 0 0 0 0 0 0 0
0 0 0 0 0 0 0 0 0 0 0 0 0 0 0 0 0 0 0 0 0 0 0 0 0 0 0 0 0 0 0 0 0 0 0 0 0 0 0 0 0 0 0 0 0
0 0 0 0 0 0 0 0 0 0 0 0 0 0 0 0 0 0 0 0 0 0 0 0 0 0 0 0 0 0 0 0 0 0 0 0 0 0 0 0 0 0 0 0 0
0 0 0 0 0 0 0 0 0 0 0 0 0 0 0 0 0 0 0 0 0 0 0 0 0 0 0 0 0 0 0 0 0 0 0 0 0 0 0 0 0 0 0 0 0
0 0 0 0 0 0 0 0 0 0 0 0 0 0 0 0 0 0 0 0 0 0 0 0 0 0 0 0 0 0 0 0 0 0 0 0 0 0 0 0 0 0 0 0 0
0 0 0 0 0 0 0 0 0 0 0 0 0 0 0 0 0 0 0 0 0 0 0 0 0 0 0 0 0 0 0 0 0 0 0 0 0 0 0 0 0 0 0 0 0
0 0 0 0 0 0 0 0 0 0 0 0 0 0 0 0 0 0 0 0 0 0 0 0 0 0 0 0 0 0 0 0 0 0 0 0 0 0 0 0 0 0 0 0 0
0 0 0 0 0 0 0 0 0 0 0 0 0 0 0 0 0 0 0 0 0 0 0 0 0 0 0 0 0 0 0 0 0 0 0 0 0 0 0 0 0 0 0 0 0
0 0 0 0 0 0 0 0 0 0 0 0 0 0 0 0 0 0 0 0 0 0 0 0 0 0 0 0 0 0 0 0 0 0 0 0 0 0 0 0 0 0 0 0 0
0 0 0 0 0 0 0 0 0 0 0 0 0 0 0 0 0 0 0 0 0 0 0 0 0 0 0 0 0 0 0 0 0 0 0 0 0 -0 0 0 0 0 0 0 0
0 0 0 0 0 0 0 0 0 0 0 0 0 0 0 0 0 0 0 0 0 0 0 0 0 0 0 0 0 0 0 0 0 0 0 0 0 0 0 0 0 0 0 0 0
0 0 0 0 0 0 0 0 0 0 0 0 0 0 0 0 0 0 0 0 0 0 0 0 0 0 0 0 0 0 0 0 0 0 0 0 0 0 0 0 0 0 0 0 0
0 0 0 0 0 0 0 0 0 0 0 0 0 0 0 0 0 0 0 0 0 0 0 0 0 0 0 0 0 0 0 0 0 0 0 0 0 0 0 0 0 0 0 0 0
0 0 0 0 0 0 0 0 0 0 0 0 0 0 0 0 0 0 0 0 0 0 0 0 0 0 0 0 0 0 0 0 0 0 0 0 0 0 0 0 0 0 0 0 0
0 0 0 0 0 0 0 0 0 0 0 0 0 0 0 0 0 0 0 0 0 0 0 0 0 0 0 0 0 0 0 0 0 0 0 0 0 0 0 0 0 0 0 0 0
0 0 0 0 0 0 0 0 0 0 0 0 0 0 0 0 0 0 0 0 0 0 0 0 0 0 0 0 0 0 0 0 0 0 0 0 0 0 0 0 0 0 0 0 0
0 0 0 0 0 0 0 0 0 0 0 0 0 0 0 0 0 0 0 0 0 0 0 0 0 0 0 0 0 0 0 0 0 0 0 0 0 0 0 0 0 0 0 0 -0
0 0 0 0 0 0 0 0 0 0 0 0 0 0 0 0 0 0 0 0 0 0 0 0 0 0 0 0 0 0 0 0 0 0 0 0 0 0 0 0 0 0 0 0 0
0 0 0 0 0 0 0 0 0 0 0 0 0 0 0 0 0 0 0 0 0 0 0 0 0 0 0 0 0 0 0 0 0 0 0 0 0 0 0 0 0 0 0 0 0
0 0 0 0 0 0 0 0 0 0 0 0 0 0 0 0 0 0 0 0 0 0 0 0 0 0 0 0 0 0 0 0 0 0 0 0 0 0 0 0 -0 -0 0 0 0
0 0 0 0 0 0 0 0 0 0 0 0 0 0 0 0 0 0 0 0 0 0 0 0 0 0 0 0 0 0 0 0 0 0 0 0 0 0 0 0 0 0 0 0 0
0 0 0 0 0 0 0 0 0 0 0 0 0 0 0 0 0 0 0 0 0 0 0 0 0 0 0 0 0 0 0 0 0 0 0 0 0 0 0 0 0 0 0 0 0
0 0 0 0 0 0 0 0 0 0 0 0 0 0 0 0 0 0 0 0 0 0 0 0 0 0 0 0 0 0 0 0 0 0 0 0 0 0 0 0 0 0 0 0 0
Wind_Speed_500mb
7 7 6 7 7 8 8 9 10 11 13 15 17 19 21 24 26 31 33 16 15 15 10 7 5 1 0 2 4 1 7 5 8 11 12 11 11 4 5 17 30 17 32 36 41
10 10 11 11 11 11 12 13 13 15 16 17 20 22 23 27 30 27 9 11 10 4 7 4 9 4 2 4 7 7 7 11 5 2 6 20 11 22 11 29 52 39 31 20 27
15 15 15 15 15 16 16 17 17 17 19 20 21 22 23 25 27 2 5 9 12 13 10 10 6 7 6 8 13 10 10 8 25 34 23 15 28 16 16 12 52 50 31 40 43
19 19 19 20 20 20 21 20 21 21 21 22 22 22 20 19 8 3 3 3 4 8 8 6 9 7 6 6 18 6 25 31 20 30 15 16 16 23 21 50 47 56 49 43 45
24 23 24 23 23 23 24 23 22 23 22 22 22 22 19 13 20 25 23 22 19 18 15 11 11 11 5 8 14 10 8 11 24 35 44 41 26 27 47 49 28 32 30 33 28
28 27 25 24 23 22 22 22 22 22 23 23 22 22 17 14 19 20 22 19 15 15 17 19 10 6 12 9 4 10 11 23 32 53 43 22 17 8 37 28 26 24 32 27 31
30 29 28 26 25 24 23 22 22 22 22 23 22 22 24 32 28 23 21 18 19 18 21 16 22 20 3 7 6 10 10 16 31 26 17 16 12 17 31 17 34 39 43 56 48
32 31 29 28 27 26 24 23 22 22 21 22 22 20 16 22 22 22 23 21 17 20 22 23 22 22 11 9 11 7 2 6 11 6 1 5 14 18 25 33 46 61 53 42 24
32 31 30 28 26 25 24 23 22 22 23 22 17 14 12 15 13 16 17 16 9 17 19 17 17 9 5 8 8 4 6 10 15 5 5 8 12 30 36 44 51 49 43 20 26
30 29 27 25 24 22 21 22 22 25 25 21 19 10 19 14 11 12 12 13 6 8 7 9 7 3 5 7 9 9 6 7 8 11 4 11 19 15 41 52 36 38 23 27 36
29 27 26 25 22 20 16 15 13 8 16 17 8 11 7 16 15 16 16 20 13 8 8 12 7 13 22 17 6 7 8 8 12 17 9 14 14 19 54 39 37 17 52 49 50
32 30 28 26 20 17 15 7 10 10 19 32 43 46 42 34 14 18 20 18 15 12 10 5 11 22 11 9 9 9 6 11 9 7 9 14 21 32 30 11 5 58 45 48 48
35 32 29 25 19 18 17 16 12 14 10 19 35 27 28 31 15 23 32 18 11 12 13 15 13 14 10 7 10 6 10 7 14 6 10 8 13 16 18 48 60 56 51 48 50
39 35 31 23 17 20 20 16 13 6 6 9 8 7 13 13 7 17 35 13 9 18 10 11 19 10 8 12 14 11 11 12 7 5 6 5 10 15 17 21 28 34 51 48 47
46 39 34 27 13 22 13 17 11 1 10 3 7 12 13 12 17 7 23 12 10 9 11 12 11 7 7 13 14 11 6 4 5 6 4 9 4 13 18 10 13 23 44 44 42
51 44 35 35 35 30 24 19 18 5 17 6 11 10 9 7 7 11 9 7 4 1 4 9 4 10 14 8 8 8 4 7 4 8 1 11 12 7 11 16 14 25 39 40 37
61 50 48 47 49 43 31 29 6 11 5 9 9 11 10 11 6 8 9 8 10 7 7 4 12 4 7 3 5 8 8 5 6 1 10 7 5 15 7 17 27 31 43 35 31
58 56 54 38 28 25 47 6 15 14 9 6 8 12 14 14 11 14 11 7 13 4 3 5 9 15 6 10 11 9 12 8 10 6 8 11 7 7 19 49 53 48 41 32 27
51 45 41 34 27 22 13 5 8 8 4 8 4 7 9 8 8 8 15 13 15 21 16 9 5 6 6 2 9 7 7 5 4 3 6 7 5 8 13 23 37 41 33 25 19
60 53 50 44 39 36 10 15 13 12 7 7 6 3 11 13 12 9 16 8 12 7 10 8 3 3 4 7 7 5 2 4 5 1 7 6 8 9 15 20 17 19 26 21 12
61 20 25 36 37 28 10 10 10 21 22 13 8 5 11 3 8 6 9 7 6 7 12 8 8 8 8 8 12 2 1 4 3 7 8 3 10 4 20 23 19 24 24 18 14
30 6 23 43 15 7 8 11 12 11 17 6 10 24 19 13 8 7 13 8 9 15 13 2 8 6 15 8 5 8 10 11 7 9 3 3 13 12 21 29 32 29 27 19 11
28 9 25 45 7 11 6 6 14 9 7 11 13 13 19 16 14 20 20 8 6 5 13 11 1 5 15 7 5 7 3 7 5 5 10 5 13 10 23 20 23 17 23 27 23
16 7 12 42 18 7 15 12 12 26 10 14 9 23 18 26 19 16 9 2 4 8 11 7 6 13 15 7 4 5 8 10 9 3 2 13 14 41 26 10 12 17 15 21 11
17 9 13 9 18 17 5 10 27 17 16 27 8 16 16 12 9 11 10 7 9 8 7 7 10 5 3 9 4 9 23 8 14 17 14 38 28 41 28 15 9 15 18 15 4
9 7 13 7 25 25 25 14 16 17 18 11 8 11 16 13 12 13 10 5 8 2 5 5 5 5 8 6 11 23 31 20 27 32 28 36 45 25 4 15 22 19 9 6 18
21 14 3 7 6 15 25 31 11 13 3 2 19 12 7 6 23 22 19 18 11 13 7 8 10 7 11 5 9 17 20 32 18 15 12 19 22 1 5 14 15 9 11 17 14
Wind_Direction_500mb
291 295 296 300 308 312 311 312 313 313 314 316 318 321 321 321 319 315 312 297 285 277 262 228 220 212 269 146 286 308 59 259 256 12 316 17 17 11 302 280 287 277 276 284 286
283 288 293 297 298 298 300 303 306 309 312 314 316 318 321 322 322 319 335 330 294 252 193 159 86 30 319 241 185 130 129 236 169 98 308 315 357 335 328 309 290 286 290 312 311
277 281 285 288 289 292 295 298 301 303 306 308 309 312 317 323 327 348 33 60 102 129 143 148 190 232 223 236 206 190 200 215 303 324 320 308 316 325 333 287 277 288 298 301 306
274 279 283 287 290 293 294 297 299 301 303 304 305 306 309 312 300 195 335 335 268 219 209 233 220 184 223 227 227 218 236 248 273 308 310 294 295 301 272 271 289 286 290 290 289
273 276 279 281 284 287 290 294 297 300 302 302 303 303 303 277 260 271 274 281 278 252 249 213 206 202 231 256 327 213 240 307 299 293 285 288 275 271 277 306 313 304 288 299 294
273 273 273 275 278 280 285 291 295 298 299 298 297 295 282 246 270 266 269 268 252 235 227 206 195 244 281 243 214 303 315 301 297 285 277 250 273 271 282 333 326 291 295 312 319
272 272 273 273 274 277 281 285 290 292 293 292 290 285 270 268 265 264 268 266 252 236 222 204 230 254 313 309 306 302 322 307 267 273 224 233 312 231 281 287 317 302 308 315 321
269 269 269 272 274 277 281 286 289 290 290 289 283 276 256 261 260 264 261 259 244 234 233 224 235 246 244 291 349 301 4 320 286 189 167 109 259 272 300 286 302 297 312 326 46
264 264 264 266 269 275 281 286 289 287 284 279 274 247 258 238 237 243 241 241 225 222 230 234 231 218 201 99 2 297 228 212 312 325 144 169 245 256 291 285 283 301 315 12 83
261 258 259 262 266 273 282 288 288 277 266 262 235 254 234 224 214 204 191 200 198 172 154 168 177 116 38 107 221 223 237 294 248 286 250 255 247 276 284 286 288 309 36 97 94
259 258 257 259 267 276 283 296 296 267 231 221 190 226 232 217 218 224 232 191 161 171 181 198 122 203 216 206 231 288 243 254 273 281 331 281 297 283 277 280 288 85 104 97 85
253 252 252 257 260 263 271 260 265 279 295 258 257 255 250 249 233 225 184 174 175 191 155 73 222 230 209 213 210 227 253 269 276 317 348 295 303 281 302 338 301 116 99 96 92
246 246 249 255 261 252 247 248 264 297 263 271 245 247 228 237 228 219 189 185 182 190 198 179 221 195 199 275 286 274 230 220 243 292 285 303 282 267 65 78 83 92 100 92 89
240 239 241 246 250 232 235 238 246 308 287 248 216 208 186 171 218 180 185 184 207 202 222 244 245 243 263 232 181 257 240 195 225 82 225 58 288 291 108 79 76 81 89 88 85
238 233 232 224 206 200 206 198 203 255 292 211 162 157 157 169 140 178 191 190 184 196 134 238 173 165 185 221 159 217 71 195 191 206 33 291 112 296 108 113 117 103 98 95 92
237 230 231 225 224 225 212 181 153 121 240 187 139 164 132 187 161 130 159 176 159 220 223 229 200 188 207 219 172 143 69 285 129 127 248 246 162 249 184 184 150 126 109 104 95
232 227 226 231 226 226 198 167 159 215 215 192 187 161 184 166 175 173 160 178 154 122 232 223 222 242 190 129 57 87 73 317 358 18 216 192 141 239 317 124 130 118 109 100 90
233 223 223 207 197 191 202 156 210 187 211 154 140 157 179 152 197 190 158 201 228 178 140 215 304 157 196 182 184 173 172 154 230 235 254 347 264 360 66 96 107 111 108 100 88
212 177 183 182 193 179 163 170 216 216 130 15 102 170 210 184 144 157 201 203 205 180 179 190 258 31 53 355 136 192 185 187 154 94 56 215 103 94 98 97 108 115 119 116 104
186 189 201 199 191 184 193 210 214 217 126 73 240 312 196 188 161 180 196 209 190 163 187 170 208 260 172 109 40 128 200 35 6 233 254 268 248 201 178 151 138 131 128 127 124
184 177 189 198 185 189 218 194 202 203 165 153 161 306 265 243 123 146 290 350 116 145 113 129 128 241 123 171 181 13 231 217 201 168 188 259 253 231 164 153 149 157 164 177 195
167 139 177 180 186 187 173 175 179 171 190 165 172 198 192 155 157 185 207 315 337 148 144 115 130 207 226 256 102 199 218 179 169 262 254 148 263 107 130 149 163 180 199 212 207
148 150 177 186 196 209 173 188 186 178 183 161 200 209 202 196 212 207 207 174 234 78 155 185 123 3 337 20 33 90 129 108 81 107 219 217 256 116 124 158 197 217 217 194 182
140 158 174 207 212 174 197 193 197 205 215 208 208 213 230 232 206 214 144 195 55 114 113 113 137 167 205 133 108 270 222 113 123 179 252 235 302 291 292 313 235 210 183 156 148
173 210 198 192 214 205 184 209 213 193 207 205 232 201 189 211 207 199 128 132 38 123 57 112 183 220 281 113 117 232 263 165 201 226 208 270 263 270 298 308 197 154 137 128 112
160 182 194 206 181 194 200 222 210 196 161 221 212 195 198 193 197 198 125 157 176 81 105 1 197 90 313 266 230 262 263 262 247 254 249 254 265 283 186 106 103 102 91 341 328
202 215 174 246 170 176 212 220 221 176 160 192 195 134 135 131 116 103 89 80 132 143 133 130 122 83 269 333 40 300 236 227 231 214 202 228 249 124 246 143 119 82 356 328 332
Wind_Speed_850mb
7 7 6 7 7 8 8 9 10 11 13 15 17 19 21 24 26 31 33 16 15 15 10 7 5 1 0 2 4 1 7 5 8 11 12 11 11 4 5 17 30 17 32 36 41
10 10 11 11 11 11 12 13 13 15 16 17 20 22 23 27 30 27 9 11 10 4 7 4 9 4 2 4 7 7 7 11 5 2 6 20 11 22 11 29 52 39 31 20 27
15 15 15 15 15 16 16 17 17 17 19 20 21 22 23 25 27 2 5 9 12 13 10 10 6 7 6 8 13 10 10 8 25 34 23 15 28 16 16 12 52 50 31 40 43
19 19 19 20 20 20 21 20 21 21 21 22 22 22 20 19 8 3 3 3 4 8 8 6 9 7 6 6 18 6 25 31 20 30 15 16 16 23 21 50 47 56 49 43 45
24 23 24 23 23 23 24 23 22 23 22 22 22 22 19 13 20 25 23 22 19 18 15 11 11 11 5 8 14 10 8 11 24 35 44 41 26 27 47 49 28 32 30 33 28
28 27 25 24 23 22 22 22 22 22 23 23 22 22 17 14 19 20 22 19 15 15 17 19 10 6 12 9 4 10 11 23 32 53 43 22 17 8 37 28 26 24 32 27 31
30 29 28 26 25 24 23 22 22 22 22 23 22 22 24 32 28 23 21 18 19 18 21 16 22 20 3 7 6 10 10 16 31 26 17 16 12 17 31 17 34 39 43 56 48
32 31 29 28 27 26 24 23 22 22 21 22 22 20 16 22 22 22 23 21 17 20 22 23 22 22 11 9 11 7 2 6 11 6 1 5 14 18 25 33 46 61 53 42 24
32 31 30 28 26 25 24 23 22 22 23 22 17 14 12 15 13 16 17 16 9 17 19 17 17 9 5 8 8 4 6 10 15 5 5 8 12 30 36 44 51 49 43 20 26
30 29 27 25 24 22 21 22 22 25 25 21 19 10 19 14 11 12 12 13 6 8 7 9 7 3 5 7 9 9 6 7 8 11 4 11 19 15 41 52 36 38 23 27 36
29 27 26 25 22 20 16 15 13 8 16 17 8 11 7 16 15 16 16 20 13 8 8 12 7 13 22 17 6 7 8 8 12 17 9 14 14 19 54 39 37 17 52 49 50
32 30 28 26 20 17 15 7 10 10 19 32 43 46 42 34 14 18 20 18 15 12 10 5 11 22 11 9 9 9 6 11 9 7 9 14 21 32 30 11 5 58 45 48 48
35 32 29 25 19 18 17 16 12 14 10 19 35 27 28 31 15 23 32 18 11 12 13 15 13 14 10 7 10 6 10 7 14 6 10 8 13 16 18 48 60 56 51 48 50
39 35 31 23 17 20 20 16 13 6 6 9 8 7 13 13 7 17 35 13 9 18 10 11 19 10 8 12 14 11 11 12 7 5 6 5 10 15 17 21 28 34 51 48 47
46 39 34 27 13 22 13 17 11 1 10 3 7 12 13 12 17 7 23 12 10 9 11 12 11 7 7 13 14 11 6 4 5 6 4 9 4 13 18 10 13 23 44 44 42
51 44 35 35 35 30 24 19 18 5 17 6 11 10 9 7 7 11 9 7 4 1 4 9 4 10 14 8 8 8 4 7 4 8 1 11 12 7 11 16 14 25 39 40 37
61 50 48 47 49 43 31 29 6 11 5 9 9 11 10 11 6 8 9 8 10 7 7 4 12 4 7 3 5 8 8 5 6 1 10 7 5 15 7 17 27 31 43 35 31
58 56 54 38 28 25 47 6 15 14 9 6 8 12 14 14 11 14 11 7 13 4 3 5 9 15 6 10 11 9 12 8 10 6 8 11 7 7 19 49 53 48 41 32 27
51 45 41 34 27 22 13 5 8 8 4 8 4 7 9 8 8 8 15 13 15 21 16 9 5 6 6 2 9 7 7 5 4 3 6 7 5 8 13 23 37 41 33 25 19
60 53 50 44 39 36 10 15 13 12 7 7 6 3 11 13 12 9 16 8 12 7 10 8 3 3 4 7 7 5 2 4 5 1 7 6 8 9 15 20 17 19 26 21 12
61 20 25 36 37 28 10 10 10 21 22 13 8 5 11 3 8 6 9 7 6 7 12 8 8 8 8 8 12 2 1 4 3 7 8 3 10 4 20 23 19 24 24 18 14
30 6 23 43 15 7 8 11 12 11 17 6 10 24 19 13 8 7 13 8 9 15 13 2 8 6 15 8 5 8 10 11 7 9 3 3 13 12 21 29 32 29 27 19 11
28 9 25 45 7 11 6 6 14 9 7 11 13 13 19 16 14 20 20 8 6 5 13 11 1 5 15 7 5 7 3 7 5 5 10 5 13 10 23 20 23 17 23 27 23
16 7 12 42 18 7 15 12 12 26 10 14 9 23 18 26 19 16 9 2 4 8 11 7 6 13 15 7 4 5 8 10 9 3 2 13 14 41 26 10 12 17 15 21 11
17 9 13 9 18 17 5 10 27 17 16 27 8 16 16 12 9 11 10 7 9 8 7 7 10 5 3 9 4 9 23 8 14 17 14 38 28 41 28 15 9 15 18 15 4
9 7 13 7 25 25 25 14 16 17 18 11 8 11 16 13 12 13 10 5 8 2 5 5 5 5 8 6 11 23 31 20 27 32 28 36 45 25 4 15 22 19 9 6 18
21 14 3 7 6 15 25 31 11 13 3 2 19 12 7 6 23 22 19 18 11 13 7 8 10 7 11 5 9 17 20 32 18 15 12 19 22 1 5 14 15 9 11 17 14
Wind_Direction_850mb
291 295 296 300 308 312 311 312 313 313 314 316 318 321 321 321 319 315 312 297 285 277 262 228 220 212 269 146 286 308 59 259 256 12 316 17 17 11 302 280 287 277 276 284 286
283 288 293 297 298 298 300 303 306 309 312 314 316 318 321 322 322 319 335 330 294 252 193 159 86 30 319 241 185 130 129 236 169 98 308 315 357 335 328 309 290 286 290 312 311
277 281 285 288 289 292 295 298 301 303 306 308 309 312 317 323 327 348 33 60 102 129 143 148 190 232 223 236 206 190 200 215 303 324 320 308 316 325 333 287 277 288 298 301 306
274 279 283 287 290 293 294 297 299 301 303 304 305 306 309 312 300 195 335 335 268 219 209 233 220 184 223 227 227 218 236 248 273 308 310 294 295 301 272 271 289 286 290 290 289
273 276 279 281 284 287 290 294 297 300 302 302 303 303 303 277 260 271 274 281 278 252 249 213 206 202 231 256 327 213 240 307 299 293 285 288 275 271 277 306 313 304 288 299 294
273 273 273 275 278 280 285 291 295 298 299 298 297 295 282 246 270 266 269 268 252 235 227 206 195 244 281 243 214 303 315 301 297 285 277 250 273 271 282 333 326 291 295 312 319
272 272 273 273 274 277 281 285 290 292 293 292 290 285 270 268 265 264 268 266 252 236 222 204 230 254 313 309 306 302 322 307 267 273 224 233 312 231 281 287 317 302 308 315 321
269 269 269 272 274 277 281 286 289 290 290 289 283 276 256 261 260 264 261 259 244 234 233 224 235 246 244 291 349 301 4 320 286 189 167 109 259 272 300 286 302 297 312 326 46
264 264 264 266 269 275 281 286 289 287 284 279 274 247 258 238 237 243 241 241 225 222 230 234 231 218 201 99 2 297 228 212 312 325 144 169 245 256 291 285 283 301 315 12 83
261 258 259 262 266 273 282 288 288 277 266 262 235 254 234 224 214 204 191 200 198 172 154 168 177 116 38 107 221 223 237 294 248 286 250 255 247 276 284 286 288 309 36 97 94
259 258 257 259 267 276 283 296 296 267 231 221 190 226 232 217 218 224 232 191 161 171 181 198 122 203 216 206 231 288 243 254 273 281 331 281 297 283 277 280 288 85 104 97 85
253 252 252 257 260 263 271 260 265 279 295 258 257 255 250 249 233 225 184 174 175 191 155 73 222 230 209 213 210 227 253 269 276 317 348 295 303 281 302 338 301 116 99 96 92
246 246 249 255 261 252 247 248 264 297 263 271 245 247 228 237 228 219 189 185 182 190 198 179 221 195 199 275 286 274 230 220 243 292 285 303 282 267 65 78 83 92 100 92 89
240 239 241 246 250 232 235 238 246 308 287 248 216 208 186 171 218 180 185 184 207 202 222 244 245 243 263 232 181 257 240 195 225 82 225 58 288 291 108 79 76 81 89 88 85
238 233 232 224 206 200 206 198 203 255 292 211 162 157 157 169 140 178 191 190 184 196 134 238 173 165 185 221 159 217 71 195 191 206 33 291 112 296 108 113 117 103 98 95 92
237 230 231 225 224 225 212 181 153 121 240 187 139 164 132 187 161 130 159 176 159 220 223 229 200 188 207 219 172 143 69 285 129 127 248 246 162 249 184 184 150 126 109 104 95
232 227 226 231 226 226 198 167 159 215 215 192 187 161 184 166 175 173 160 178 154 122 232 223 222 242 190 129 57 87 73 317 358 18 216 192 141 239 317 124 130 118 109 100 90
233 223 223 207 197 191 202 156 210 187 211 154 140 157 179 152 197 190 158 201 228 178 140 215 304 157 196 182 184 173 172 154 230 235 254 347 264 360 66 96 107 111 108 100 88
212 177 183 182 193 179 163 170 216 216 130 15 102 170 210 184 144 157 201 203 205 180 179 190 258 31 53 355 136 192 185 187 154 94 56 215 103 94 98 97 108 115 119 116 104
186 189 201 199 191 184 193 210 214 217 126 73 240 312 196 188 161 180 196 209 190 163 187 170 208 260 172 109 40 128 200 35 6 233 254 268 248 201 178 151 138 131 128 127 124
184 177 189 198 185 189 218 194 202 203 165 153 161 306 265 243 123 146 290 350 116 145 113 129 128 241 123 171 181 13 231 217 201 168 188 259 253 231 164 153 149 157 164 177 195
167 139 177 180 186 187 173 175 179 171 190 165 172 198 192 155 157 185 207 315 337 148 144 115 130 207 226 256 102 199 218 179 169 262 254 148 263 107 130 149 163 180 199 212 207
148 150 177 186 196 209 173 188 186 178 183 161 200 209 202 196 212 207 207 174 234 78 155 185 123 3 337 20 33 90 129 108 81 107 219 217 256 116 124 158 197 217 217 194 182
140 158 174 207 212 174 197 193 197 205 215 208 208 213 230 232 206 214 144 195 55 114 113 113 137 167 205 133 108 270 222 113 123 179 252 235 302 291 292 313 235 210 183 156 148
173 210 198 192 214 205 184 209 213 193 207 205 232 201 189 211 207 199 128 132 38 123 57 112 183 220 281 113 117 232 263 165 201 226 208 270 263 270 298 308 197 154 137 128 112
160 182 194 206 181 194 200 222 210 196 161 221 212 195 198 193 197 198 125 157 176 81 105 1 197 90 313 266 230 262 263 262 247 254 249 254 265 283 186 106 103 102 91 341 328
202 215 174 246 170 176 212 220 221 176 160 192 195 134 135 131 116 103 89 80 132 143 133 130 122 83 269 333 40 300 236 227 231 214 202 228 249 124 246 143 119 82 356 328 332